Погода в Равнеце

Россия / Тюменская область     56°11′32″N   69°47′13″E
темп.,
°C
ветер,
м/с
пор.,
м/с
влажн.,
%
обл.,
%
осадки,
мм/ч
давл.,
гПа
погр.,
м
20 апреля, вт
вт2023:00−5ссв36515 0.0 1033257
02:00−5ссв24530 0.0 1033242
05:00−6с12541 0.0 103451
08:00−4зсз34414 0.0 1033963
11:000з45305 0.0 10321197
14:00+3з67295 0.0 10281416
17:00+5з7103714 0.0 10261650
20:00+2зюз5125384 0.0 1025242
21 апреля, ср
ср2123:00+2з61559100 0.0 1023339
02:00+1зсз5126919 0.0 1023293
05:00−1ссз410895 0.0 1025219
08:00+1с5884100 0.0 1027650
11:00+5с684928 0.0 10291251
14:00+8с68405 0.0 10301595
17:00+7ссв67375 0.0 10321553
20:00+4всв37561 0.0 1035163
22 апреля, чт
чт2223:00+1в48690 0.0 1037244
02:00−1вюв35760 0.0 1039130
05:00−2вюв36785 0.0 1041183
08:00+2ююв45530 0.0 1043677
11:00+5ююв45390 0.0 10431074
14:00+8ююв55322 0.0 10421356
17:00+8ю55320 0.0 10421439
20:00+5ююв47483 0.0 1042137
23 апреля, пт
пт2323:00+3ююв41056100 0.0 1042209
02:00+2ююв4126019 0.0 1042260
05:00+1ююв51263100 0.0 1042267
08:00+5ю6115496 0.0 1042445
11:00+9ю78385 0.0 10411103
14:00+11ю67326 0.0 10391637
17:00+12ю67315 0.0 10381686
20:00+8ююв4946100 0.0 1037209
24 апреля, сб
сб2423:00+6ююв51248100 0.0 1036293
02:00+4ююв4105575 0.0 1035227
05:00+3ююв496384 0.0 1035189
08:00+6ю5949100 0.0 1034375
11:00+11ю6834100 0.0 10321168
14:00+13ю6728100 0.0 10301870
17:00+12ю5632100 0.0 10291750
20:00+9юв3843100 0.0 1029186